User: anonymous   Login
Location: Pine Mountain Observatory
(43.7910°N, 120.9377°W)
Time: 01:10:35
(UTC-08:00)
Language:

Cosmos 1076 Rocket - Orbit

View from above orbital plane
View from above orbital plane
View from above satellite
View from above satellite

Ground track
Ground track

The orbit data is extracted from the following two-line orbital elements,

1 11267U 79011B   15027.87973265  .00000438  00000-0  44481-4 0  6400
2 11267 082.5283 331.8739 0015738 243.2222 169.0410 14.88416206945843
Epoch (UTC): 27 January 2015 21:06:48
Eccentricity: 0.0015738
inclination: 82.5283°
perigee height: 592 km
apogee height: 614 km
right ascension of ascending node: 331.8739°
argument of perigee: 243.2222°
revolutions per day: 14.88416206
mean anomaly at epoch: 169.0410°
orbit number at epoch: 94584

The dashed part of the orbit path shows where the satellite is in the earth's shadow,  

DLR